Weather History for Buffalo, NY

Change the Weather History Date:

Sunday, June 22, 2014

  Actual Average Record
Temperature  
Mean Temperature 67 °F 68 °F  
Max Temperature 80 °F 77 °F 92 °F (1957)
Min Temperature 54 °F 59 °F 44 °F (1992)
Degree Days  
Heating Degree Days 0 1  
Month to date heating degree days 28 57  
Since 1 June heating degree days 28 57  
Since 1 July heating degree days 7125 6610  
Cooling Degree Days 2 4  
Month to date cooling degree days 65 62  
Year to date cooling degree days 88 88  
Since 1 June cooling degree days 65 62  
Growing Degree Days 17 (Base 50)    
Moisture  
Dew Point 48 °F    
Average Humidity 55    
Maximum Humidity 77    
Minimum Humidity 32    
Precipitation  
Precipitation 0.00 in 0.12 in 5.01 in (1987)
Month to date precipitation 2.84 2.77  
Year to date precipitation 20.37 17.78  
Snow  
Snow 0.00 in 0.00 in 0.00 in ()
Month to date snowfall 0.0 0.0  
Since 1 June snowfall 0.0 0.0  
Since 1 July snowfall 129.9 94.7  
Snow Depth 0.00 in    
Sea Level Pressure  
Sea Level Pressure 29.98 in    
Wind  
Wind Speed 6 mph (East)    
Max Wind Speed 14 mph    
Max Gust Speed 19 mph    
Visibility 10 miles    
Events      
T = Trace of Precipitation, MM = Missing Value Source: NWS Daily Summary

Daily Weather History Graph

Daily Weather History Graph

Search for Another Location

Airport:

Trip Planner

Search our weather history database for the weather conditions in past years. The results will help you decide how hot, cold, wet, or windy it might be!

Date:

Astronomy

Jun. 22, 2014 Rise Set
Actual Time 5:36 AM EDT 8:57 PM EDT
Civil Twilight 5:00 AM EDT 9:32 PM EDT
Nautical Twilight 4:15 AM EDT 10:18 PM EDT
Astronomical Twilight 3:18 AM EDT 11:15 PM EDT
Moon 2:29 AM EDT (6/22) 4:31 PM EDT (6/22)
Length of Visible Light 16h 31m
Length of Day
15h 21m
Waning Crescent, 21% of the Moon is Illuminated
Jun 22
Waning Crescent
Jun 27
New
Jul 5
First Quarter
Jul 12
Full
Jul 18
Last Quarter

Hourly Weather History & Observations

Time (EDT) Temp. Dew Point Humidity Pressure Visibility Wind Dir Wind Speed Gust Speed Precip Events Conditions
12:54 AM 61.0 °F 48.0 °F 62% 29.97 in 10.0 mi Calm Calm - N/A   Partly Cloudy
1:54 AM 59.0 °F 48.0 °F 67% 29.98 in 10.0 mi ESE 4.6 mph - N/A   Partly Cloudy
2:54 AM 57.0 °F 48.9 °F 74% 29.97 in 10.0 mi ESE 4.6 mph - N/A   Scattered Clouds
3:54 AM 55.9 °F 48.0 °F 75% 29.96 in 10.0 mi ESE 5.8 mph - N/A   Scattered Clouds
4:54 AM 55.0 °F 48.0 °F 77% 29.98 in 10.0 mi SSE 3.5 mph - N/A   Scattered Clouds
5:54 AM 55.0 °F 48.0 °F 77% 29.98 in 10.0 mi SE 4.6 mph - N/A   Partly Cloudy
6:54 AM 57.0 °F 48.0 °F 72% 29.99 in 10.0 mi ESE 3.5 mph - N/A   Partly Cloudy
7:54 AM 63.0 °F 50.0 °F 63% 29.99 in 10.0 mi ESE 5.8 mph - N/A   Partly Cloudy
8:54 AM 68.0 °F 48.9 °F 50% 29.99 in 10.0 mi ESE 5.8 mph - N/A   Partly Cloudy
9:54 AM 72.0 °F 46.0 °F 40% 30.00 in 10.0 mi ESE 5.8 mph - N/A   Partly Cloudy
10:54 AM 73.9 °F 45.0 °F 35% 29.99 in 10.0 mi East 8.1 mph - N/A   Partly Cloudy
11:54 AM 75.0 °F 46.0 °F 36% 29.98 in 10.0 mi ESE 9.2 mph 16.1 mph N/A   Partly Cloudy
12:54 PM 75.9 °F 45.0 °F 33% 29.99 in 10.0 mi Calm Calm - N/A   Partly Cloudy
1:54 PM 77.0 °F 46.0 °F 33% 29.98 in 10.0 mi Variable 3.5 mph - N/A   Partly Cloudy
2:54 PM 78.1 °F 46.9 °F 33% 29.98 in 10.0 mi East 6.9 mph - N/A   Partly Cloudy
3:54 PM 79.0 °F 46.9 °F 32% 29.99 in 10.0 mi East 9.2 mph - N/A   Partly Cloudy
4:54 PM 79.0 °F 46.9 °F 32% 29.97 in 10.0 mi Variable 3.5 mph - N/A   Partly Cloudy
5:54 PM 78.1 °F 46.9 °F 33% 29.96 in 10.0 mi East 5.8 mph - N/A   Partly Cloudy
6:54 PM 77.0 °F 51.1 °F 40% 29.96 in 10.0 mi ENE 9.2 mph - N/A   Partly Cloudy
7:54 PM 75.0 °F 50.0 °F 41% 29.97 in 10.0 mi NE 8.1 mph - N/A   Partly Cloudy
8:54 PM 72.0 °F 50.0 °F 46% 29.96 in 10.0 mi ENE 6.9 mph - N/A   Partly Cloudy
9:54 PM 69.1 °F 50.0 °F 51% 29.98 in 10.0 mi ENE 6.9 mph - N/A   Partly Cloudy
10:54 PM 68.0 °F 48.9 °F 50% 29.98 in 10.0 mi East 8.1 mph - N/A   Clear
11:54 PM 64.9 °F 48.0 °F 54% 29.99 in 10.0 mi East 6.9 mph - N/A   Clear